Weather History for Morelia, Mexico

Change the Weather History Date:

Saturday, October 27, 2012

  Actual Average Record
Temperature  
Mean Temperature 63 °F -  
Max Temperature 84 °F 75 °F 86 °F (2000)
Min Temperature 42 °F 48 °F 32 °F (1999)
Degree Days  
Heating Degree Days 2    
Growing Degree Days 13 (Base 50)    
Moisture  
Dew Point 50 °F    
Average Humidity 68    
Maximum Humidity 100    
Minimum Humidity 22    
Precipitation  
Precipitation 0.00 in 0.02 in - ()
Sea Level Pressure  
Sea Level Pressure 29.99 in    
Wind  
Wind Speed 2 mph ()    
Max Wind Speed 9 mph    
Max Gust Speed -    
Visibility 7.0 miles    
Events Fog    
Averages and records for this station are not official NWS values.
T = Trace of Precipitation, MM = Missing Value Source: Averaged Metar Reports

Daily Weather History Graph

Daily Weather History Graph

Search for Another Location

Airport:

Trip Planner

Search our weather history database for the weather conditions in past years. The results will help you decide how hot, cold, wet, or windy it might be!

Date:

Astronomy

Oct. 27, 2012 Rise Set
Actual Time 7:43 AM CDT 7:12 PM CDT
Civil Twilight 7:20 AM CDT 7:34 PM CDT
Nautical Twilight 6:54 AM CDT 8:00 PM CDT
Astronomical Twilight 6:29 AM CDT 8:26 PM CDT
Moon 5:51 PM CDT (10/27) 5:51 AM CDT (10/27)
Length of Visible Light 12h 13m
Length of Day
11h 28m
Waxing Gibbous, 96% of the Moon is Illuminated
Oct 27
Waxing Gibbous
Oct 29
Full
Nov 6
Last Quarter
Nov 13
New
Nov 20
First Quarter

Hourly Weather History & Observations

Time (CDT) Temp. Dew Point Humidity Pressure Visibility Wind Dir Wind Speed Gust Speed Precip Events Conditions
12:45 AM 62 °F 51 °F 59% 29.72 in 5 mi North 2.2 mph - -   Partly Cloudy
12:47 AM 57.2 °F 51.8 °F 82% 29.74 in 6.0 mi Calm Calm - N/A   Clear
1:42 AM 55.4 °F 50.0 °F 82% 30.17 in 6.0 mi Calm Calm - N/A   Clear
2:43 AM 53.6 °F 50.0 °F 88% 30.16 in 6.0 mi Calm Calm - N/A   Clear
3:45 AM 51.8 °F 48.2 °F 88% 29.73 in 6.0 mi Calm Calm - N/A   Clear
3:50 AM 57 °F 51 °F 76% 29.76 in 5 mi North 4.5 mph - -  
4:43 AM 50.0 °F 46.4 °F 87% 30.15 in 6.0 mi Calm Calm - N/A   Clear
5:44 AM 48.2 °F 46.4 °F 93% 30.16 in 6.0 mi Calm Calm - N/A   Clear
6:47 AM 46.4 °F 44.6 °F 93% 29.81 in 5.0 mi Calm Calm - N/A Fog Clear
6:55 AM 53 °F 50 °F 87% 29.86 in 5 mi West 2.2 mph - -  
7:50 AM 42.8 °F 42.8 °F 100% 30.19 in 7.0 mi Calm Calm - N/A   Clear
8:40 AM 48.2 °F 48.2 °F 100% 30.22 in 8.0 mi Calm Calm - N/A   Clear
9:20 AM 55.4 °F 51.8 °F 88% 30.23 in 8.0 mi Calm Calm - N/A   Clear
9:48 AM 59.0 °F 50.0 °F 72% 29.87 in 8.0 mi NW 2.3 mph - N/A   Clear
9:50 AM 58 °F 51 °F 71% 29.97 in 7 mi WNW 4.5 mph - -  
10:21 AM 62.6 °F 48.2 °F 59% 30.24 in 8.0 mi WNW 2.3 mph - N/A   Clear
10:52 AM 64.4 °F 46.4 °F 52% 30.24 in 8.0 mi East 3.5 mph - N/A   Clear
11:48 AM 69.8 °F 46.4 °F 43% 30.23 in 8.0 mi WSW 2.3 mph - N/A   Clear
12:50 PM 72 °F 53 °F 41% 29.93 in 7 mi WSW 4.5 mph - -  
12:50 PM 71.6 °F 46.4 °F 41% 29.80 in 8.0 mi West 3.5 mph - N/A   Clear
1:40 PM 75.2 °F 44.6 °F 34% 30.15 in 8.0 mi Calm Calm - N/A   Clear
2:43 PM 77.0 °F 44.6 °F 32% 30.11 in 8.0 mi Calm Calm - N/A   Clear
3:43 PM 78.8 °F 42.8 °F 28% 29.68 in 8.0 mi NNE 9.2 mph - N/A   Partly Cloudy
3:55 PM 82 °F 50 °F 22% 29.79 in 9 mi SSW 2.2 mph - -  
4:45 PM 78.8 °F 44.6 °F 30% 30.07 in 8.0 mi NW 6.9 mph - N/A   Partly Cloudy
5:45 PM 78.8 °F 46.4 °F 32% 30.07 in 8.0 mi WSW 4.6 mph - N/A   Partly Cloudy
6:45 PM 71.6 °F 57.2 °F 60% 29.72 in 8.0 mi South 6.9 mph - N/A   Scattered Clouds
6:55 PM 72 °F 62 °F 64% 29.68 in 6 mi SSW 2.2 mph - -  
7:45 PM 66.2 °F 57.2 °F 73% 30.11 in 7.0 mi South 6.9 mph - N/A   Scattered Clouds
8:43 PM 60.8 °F 55.4 °F 82% 30.14 in 7.0 mi Calm Calm - N/A   Scattered Clouds
9:47 PM 62.6 °F 59.0 °F 88% 29.70 in 7.0 mi SSW 8.1 mph - N/A   Scattered Clouds
9:55 PM 64 °F 61 °F 87% 29.70 in 5 mi SSW 2.2 mph - -  
10:42 PM 62.6 °F 59.0 °F 88% 30.20 in 8.0 mi SW 5.8 mph - N/A   Scattered Clouds
11:42 PM 59.0 °F 57.2 °F 94% 30.20 in 8.0 mi Calm Calm - N/A   Scattered Clouds